User: anonymous   Login
Location: Gollag?dem
(16.8053°N, 80.8024°E)
Time: 18:17:12
(UTC+00:00)
Language:

Cosmos 1633 Rocket - Orbit

View from above orbital plane
View from above orbital plane
View from above satellite
View from above satellite

Ground track
Ground track

The orbit data is extracted from the following two-line orbital elements,

1 15593U 85020B   20298.44229227  .00000081  00000-0  68084-5 0  9991
2 15593  82.5409 195.9927 0010602 318.8956  41.1460 14.84399675926126
Epoch (UTC): 24 October 2020 10:36:54
Eccentricity: 0.0010602
inclination: 82.5409°
perigee height: 608 km
apogee height: 623 km
right ascension of ascending node: 195.9927°
argument of perigee: 318.8956°
revolutions per day: 14.84399675
mean anomaly at epoch: 41.1460°
orbit number at epoch: 92612

The dashed part of the orbit path shows where the satellite is in the earth's shadow,  

DLR